Location: Newark
(34.3481°N, 134.0494°E)
Time: 11:48:18
(UTC+00:00)

Courier 1B - All Passes

Search period start: 24 January 2020 00:00
Search period end: 03 February 2020 00:00
Orbit: 962 x 1209 km, 28.3° (Epoch: 23 January)

Date Brightness Start Highest point End Pass type
(mag) Time Alt. Az. Time Alt. Az. Time Alt. Az.
24 Jan - 01:05:52 10° WSW 01:09:07 13° SSW 01:12:21 10° S daylight
24 Jan - 16:34:45 10° SSW 16:40:16 25° SSE 16:46:03 10° ESE night (unlit)
24 Jan - 18:26:56 10° WSW 18:33:51 47° SSE 18:41:09 10° E visible
24 Jan - 20:20:30 10° WSW 20:27:50 55° S 20:35:27 10° ESE visible
24 Jan - 22:14:44 10° W 22:21:48 39° SSW 22:28:59 10° SE daylight
25 Jan - 00:10:30 10° WSW 00:15:25 18° SSW 00:20:18 10° S daylight
25 Jan - 15:42:04 10° SSW 15:46:40 19° SSE 15:51:26 10° ESE night (unlit)
25 Jan - 17:33:28 10° SW 17:40:04 41° SSE 17:47:03 10° E visible
25 Jan - 19:26:46 10° WSW 19:33:57 55° S 19:41:30 10° ESE visible
25 Jan - 21:20:47 10° W 21:27:57 45° SSW 21:35:20 10° SE visible
25 Jan - 23:15:50 10° WSW 23:21:40 23° SSW 23:27:32 10° SSE daylight
26 Jan - 14:49:59 10° S 14:53:05 13° SSE 14:56:16 10° ESE night (unlit)
26 Jan - 16:40:09 10° SW 16:46:21 35° SSE 16:52:54 10° E night (unlit)
26 Jan - 18:33:06 10° WSW 18:40:06 54° S 18:47:30 10° E visible
26 Jan - 20:26:55 10° W 20:34:06 49° S 20:41:33 10° ESE visible
26 Jan - 22:21:31 10° WSW 22:27:54 29° SSW 22:34:23 10° SSE daylight
27 Jan - 15:47:01 10° SW 15:52:42 28° SSE 15:58:39 10° E night (unlit)
27 Jan - 17:39:31 10° WSW 17:46:17 50° S 17:53:29 10° E visible
27 Jan - 19:33:09 10° W 19:40:13 53° S 19:47:40 10° ESE visible
27 Jan - 21:27:25 10° W 21:34:06 34° SSW 21:40:59 10° SE visible
27 Jan - 23:23:57 10° WSW 23:27:39 14° SSW 23:31:24 10° S daylight
28 Jan - 14:54:07 10° SSW 14:59:06 22° SSE 15:04:16 10° ESE night (unlit)
28 Jan - 16:46:03 10° WSW 16:52:32 45° SSE 16:59:25 10° E visible
28 Jan - 18:39:26 10° WSW 18:46:23 54° S 18:53:45 10° ESE visible
28 Jan - 20:33:28 10° W 20:40:17 40° SSW 20:47:24 10° SE visible
28 Jan - 22:28:55 10° WSW 22:33:56 19° SSW 22:39:01 10° SSE daylight
29 Jan - 14:01:36 10° S 14:05:33 16° SSE 14:09:36 10° ESE night (unlit)
29 Jan - 15:52:40 10° SW 15:58:50 38° SSE 16:05:22 10° E night (unlit)
29 Jan - 17:45:48 10° WSW 17:52:34 54° S 17:59:47 10° ESE visible
29 Jan - 19:39:38 10° W 19:46:29 45° SSW 19:53:41 10° ESE visible
29 Jan - 21:34:27 10° WSW 21:40:12 24° SSW 21:46:06 10° SSE visible
30 Jan - 13:09:57 10° SSE 13:12:02 12° SSE 13:14:07 10° SE night (unlit)
30 Jan - 14:59:26 10° SW 15:05:12 32° SSE 15:11:15 10° E night (unlit)
30 Jan - 16:52:13 10° WSW 16:58:48 52° S 17:05:49 10° E visible
30 Jan - 18:45:53 10° W 18:52:40 49° S 18:59:52 10° ESE visible
30 Jan - 20:40:16 10° WSW 20:46:26 29° SSW 20:52:50 10° SE visible
30 Jan - 22:39:03 10° SW 22:39:56 10° SSW 22:40:49 10° SSW daylight
31 Jan - 14:06:21 10° SSW 14:11:37 26° SSE 14:17:03 10° ESE night (unlit)
31 Jan - 15:58:42 10° WSW 16:05:05 47° S 16:11:50 10° E night (unlit)
31 Jan - 17:52:12 10° W 17:58:53 52° S 18:06:00 10° ESE visible
31 Jan - 19:46:18 10° W 19:52:41 34° SSW 19:59:22 10° SE visible
31 Jan - 21:42:28 10° WSW 21:46:13 14° SSW 21:50:03 10° S daylight
01 Feb - 13:13:32 10° SSW 13:18:04 20° SSE 13:22:42 10° ESE night (unlit)
01 Feb - 15:05:16 10° SW 15:11:24 42° SSE 15:17:51 10° E night (unlit)
01 Feb - 16:58:34 10° WSW 17:05:07 53° S 17:12:06 10° ESE visible
01 Feb - 18:52:28 10° W 18:58:55 39° SSW 19:05:45 10° SE visible
01 Feb - 20:47:40 10° WSW 20:52:31 19° SSW 20:57:32 10° SSE visible
02 Feb - 12:21:06 10° S 12:24:33 15° SSE 12:28:00 10° ESE night (unlit)
02 Feb - 14:11:56 10° SW 14:17:46 36° SSE 14:23:51 10° E night (unlit)
02 Feb - 16:04:58 10° WSW 16:11:24 52° S 16:18:11 10° ESE night (unlit)
02 Feb - 17:58:43 10° W 18:05:10 44° SSW 18:12:02 10° ESE visible
02 Feb - 19:53:20 10° WSW 19:58:48 24° SSW 20:04:31 10° SSE visible
